CW1961 Weather Reports


Display with metric or nautical units.
time (UTC)temp
F
wind
direction
speed
MPH
gust
MPH
rain 1hr
in
rain 24hr
in
rain mn
in
humidity
%
barometer
mb
20180222143306 31 5 0.0 0.0 0.00 0.00 0.00 97 1030.3
20180222142321 31 51 0.0 0.0 0.00 0.00 0.00 97 1030.1
20180222141309 31 63 0.0 0.0 0.00 0.00 0.00 97 1029.9
20180222140319 31 76 0.0 0.0 0.00 0.00 0.00 97 1029.8
20180222135309 31 74 0.0 0.0 0.00 0.00 0.00 97 1029.7
20180222134321 31 89 0.0 0.0 0.00 0.00 0.00 97 1029.7
20180222133310 31 67 0.0 0.0 0.00 0.00 0.00 97 1029.3
20180222132319 30 55 0.0 0.0 0.00 0.00 0.00 97 1029.6
20180222131309 30 67 0.0 0.0 0.00 0.00 0.00 97 1029.1
20180222130347 30 50 0.0 0.0 0.00 0.00 0.00 97 1028.5
20180222125312 30 35 0.0 0.0 0.00 0.00 0.00 97 1028.5
20180222124322 30 30 0.0 0.0 0.00 0.00 0.00 97 1028.8
20180222123313 30 49 0.0 0.0 0.00 0.00 0.00 97 1029.4
20180222122323 30 45 0.0 0.0 0.00 0.00 0.00 97 1029.6
20180222121312 30 19 0.0 0.0 0.00 0.00 0.00 97 1029.2
20180222120322 30 13 0.0 0.0 0.00 0.00 0.00 97 1029.4
20180222115316 30 20 0.0 0.0 0.00 0.00 0.00 97 1030.0
20180222114306 30 12 0.0 0.0 0.00 0.00 0.00 97 1030.0
20180222113315 30 11 0.0 0.0 0.00 0.00 0.00 97 1030.2
20180222112306 30 326 0.0 0.0 0.00 0.00 0.00 97 1030.5
20180222111318 30 346 0.0 0.0 0.00 0.00 0.00 97 1030.4
20180222110309 30 30 0.0 0.0 0.00 0.00 0.00 97 1029.9
20180222105319 30 344 0.0 0.0 0.00 0.00 0.00 97 1030.1
20180222104312 30 355 0.0 0.0 0.00 0.00 0.00 97 1029.9
20180222103319 30 5 0.0 0.0 0.00 0.00 0.00 97 1029.8
20180222102309 30 360 0.0 0.0 0.00 0.00 0.00 97 1029.8
20180222101320 30 22 0.0 0.0 0.00 0.00 0.00 97 1029.7
20180222100314 30 25 0.0 0.0 0.00 0.00 0.00 97 1030.2
20180222095323 30 355 0.0 0.0 0.00 0.00 0.00 97 1030.1
20180222094314 30 360 0.0 0.0 0.00 0.00 0.00 97 1029.8
20180222093323 30 333 0.0 0.0 0.00 0.00 0.00 97 1029.5
20180222092316 30 15 0.0 0.0 0.00 0.00 0.00 97 1029.4
20180222091321 30 17 0.0 0.0 0.00 0.00 0.00 97 1029.4
20180222090310 30 26 0.0 0.0 0.00 0.00 0.00 97 1029.4
20180222085318 30 344 0.0 0.0 0.00 0.00 0.00 96 1029.7
20180222084308 30 5 0.0 0.0 0.00 0.00 0.00 96 1029.8
20180222083318 30 5 0.0 0.0 0.00 0.00 0.00 96 1029.9
20180222082307 29 24 0.0 0.0 0.00 0.00 0.00 96 1030.0
20180222081321 29 11 0.0 0.0 0.00 0.00 0.00 96 1029.8
20180222080311 29 355 0.0 0.0 0.00 0.00 0.00 96 1030.1
20180222075320 29 5 0.0 0.0 0.00 0.00 0.00 96 1029.8
20180222074312 29 349 0.0 0.0 0.00 0.00 0.00 96 1030.0
20180222073325 29 331 0.0 0.0 0.00 0.00 0.00 95 1029.9
20180222072315 29 338 0.0 0.0 0.00 0.00 0.00 95 1030.1
20180222071305 29 19 0.0 0.0 0.00 0.00 0.00 95 1030.1
20180222070315 29 35 0.0 0.0 0.00 0.00 0.00 95 1030.1
20180222065309 29 42 0.0 0.0 0.00 0.00 0.00 95 1029.8
20180222064340 29 49 0.0 0.0 0.00 0.00 0.00 95 1029.9
20180222063308 29 31 0.0 0.0 0.00 0.00 0.00 95 1030.1
20180222062318 29 46 0.0 0.0 0.00 0.00 0.00 95 1030.1
20180222061310 29 346 0.0 0.0 0.00 0.00 0.00 95 1030.3
20180222060325 29 23 0.0 0.0 0.00 0.00 0.00 95 1030.1
20180222055324 29 67 0.0 0.0 0.00 0.00 0.00 95 1030.2
20180222054319 29 59 0.0 0.0 0.00 0.00 0.00 95 1030.3
20180222053307 29 31 0.0 0.0 0.00 0.00 0.00 95 1030.4
20180222052316 29 30 0.0 0.0 0.00 0.00 0.00 95 1030.4
20180222051306 29 48 0.0 0.0 0.00 0.00 0.00 95 1030.5
20180222050320 29 53 0.0 0.0 0.00 0.00 0.00 95 1030.5
20180222045311 29 57 0.0 0.0 0.00 0.00 0.00 95 1030.2
20180222044321 29 40 0.0 0.0 0.00 0.00 0.00 95 1030.3
20180222043309 29 41 0.0 0.0 0.00 0.00 0.00 95 1030.5
20180222042324 28 47 0.0 0.0 0.00 0.00 0.00 95 1030.3
20180222041314 28 59 0.0 0.0 0.00 0.00 0.00 95 1030.2
20180222040324 28 55 0.0 0.0 0.00 0.00 0.00 95 1030.3
20180222035317 28 34 0.0 0.0 0.00 0.00 0.00 95 1030.6
20180222034306 28 53 0.0 0.0 0.00 0.00 0.00 95 1030.8
20180222033308 28 21 0.0 0.0 0.00 0.00 0.00 94 1030.8
20180222032316 28 32 0.0 0.0 0.00 0.00 0.00 94 1031.1
20180222031309 28 19 0.0 0.0 0.00 0.00 0.00 94 1031.3
20180222030319 28 22 0.0 0.0 0.00 0.00 0.00 94 1031.3
20180222025307 28 9 0.0 0.0 0.00 0.00 0.00 94 1031.2
20180222024314 28 34 0.0 0.0 0.00 0.00 0.00 94 1031.0
20180222023308 28 9 0.0 0.0 0.00 0.00 0.00 94 1030.7
20180222022311 28 30 0.0 0.0 0.00 0.00 0.00 94 1030.8
20180222021315 28 346 0.0 0.0 0.00 0.00 0.00 94 1030.9
20180222020323 28 9 0.0 0.0 0.00 0.00 0.00 94 1031.1
20180222015315 28 13 0.0 0.0 0.00 0.00 0.00 94 1031.0
20180222014322 28 11 0.0 0.0 0.00 0.00 0.00 94 1031.0
20180222013312 28 351 0.0 0.0 0.00 0.00 0.00 94 1031.2
20180222012307 28 5 0.0 0.0 0.00 0.00 0.00 94 1031.2
20180222011316 28 11 0.0 0.0 0.00 0.00 0.00 94 1031.6
20180222010325 28 14 0.0 0.0 0.00 0.00 0.00 94 1031.6
20180222005320 28 30 0.0 0.0 0.00 0.00 0.00 94 1031.2
20180222004312 28 5 0.0 0.0 0.00 0.00 0.00 94 1031.5
20180222003321 28 21 0.0 0.0 0.00 0.00 0.00 94 1031.9
20180222002325 28 336 0.0 0.0 0.00 0.00 0.00 94 1032.2
20180222001315 28 20 0.0 0.0 0.00 0.00 0.00 94 1031.9
20180222000307 28 53 0.0 0.0 0.00 0.00 0.00 94 1031.6
20180221235318 28 61 0.0 0.0 0.00 0.00 0.00 95 1031.0
20180221234307 27 71 0.0 0.0 0.00 0.00 0.00 94 1031.1
20180221233317 27 50 0.0 0.0 0.00 0.00 0.00 94 1030.3
20180221232310 27 52 0.0 0.0 0.00 0.00 0.00 94 1031.5
20180221231321 27 57 0.0 0.0 0.00 0.00 0.00 94 1031.2
20180221230311 27 58 0.0 0.0 0.00 0.00 0.00 94 1031.5
20180221225321 27 63 0.0 0.0 0.00 0.01 0.00 94 1031.8
20180221224313 27 40 0.0 0.0 0.00 0.01 0.00 93 1032.5
20180221223322 27 63 0.0 0.0 0.00 0.01 0.00 94 1032.6
20180221222311 27 67 0.0 0.0 0.00 0.01 0.00 94 1032.5
20180221221325 27 60 0.0 0.0 0.00 0.01 0.00 94 1032.6
20180221220313 27 41 0.0 0.0 0.00 0.01 0.00 93 1032.8
20180221215324 27 43 0.0 0.0 0.00 0.04 0.00 93 1032.8
20180221214315 27 38 0.0 0.0 0.00 0.04 0.00 94 1032.8
20180221213307 27 30 0.0 0.0 0.00 0.04 0.00 93 1032.9
20180221212317 27 10 0.0 0.0 0.00 0.04 0.00 93 1032.6
20180221211326 27 41 0.0 0.0 0.00 0.04 0.00 92 1032.7
20180221210316 27 23 0.0 0.0 0.00 0.04 0.00 92 1032.9
20180221205322 27 5 0.0 0.0 0.00 0.16 0.00 92 1033.0
20180221204311 27 360 0.0 0.0 0.00 0.16 0.00 91 1032.9
20180221203320 27 42 0.0 0.0 0.00 0.16 0.00 92 1032.4
20180221202319 26 10 0.0 0.0 0.00 0.16 0.00 92 1032.0
20180221201309 26 16 0.0 0.0 0.00 0.16 0.00 91 1031.9
20180221200319 26 34 0.0 0.0 0.00 0.16 0.00 91 1031.9
20180221195308 26 13 0.0 0.0 0.00 0.20 0.00 91 1032.2
20180221194322 26 24 0.0 0.0 0.00 0.20 0.00 91 1032.0
20180221193311 26 329 0.0 0.0 0.00 0.20 0.00 91 1032.4
20180221192322 26 360 0.0 0.0 0.00 0.20 0.00 91 1032.6
20180221191311 26 26 0.0 0.0 0.00 0.20 0.00 90 1032.9
20180221190323 26 12 0.0 0.0 0.00 0.20 0.00 92 1032.8
20180221185310 26 17 0.0 0.0 0.00 0.32 0.00 90 1032.8
20180221184320 26 24 0.0 0.0 0.00 0.32 0.00 91 1032.8
20180221183310 26 360 0.0 0.0 0.00 0.32 0.00 91 1033.1
20180221182324 26 35 0.0 0.0 0.00 0.32 0.00 91 1033.3
20180221181314 25 41 0.0 0.0 0.00 0.32 0.00 91 1032.8
20180221180327 25 11 0.0 0.0 0.00 0.32 0.00 91 1032.8
20180221175316 25 355 0.0 0.0 0.00 0.53 0.00 91 1033.2
20180221174325 25 37 0.0 0.0 0.00 0.53 0.00 91 1033.3
20180221173315 25 51 0.0 0.0 0.00 0.53 0.00 92 1033.6
20180221172325 25 28 0.0 0.0 0.00 0.53 0.00 92 1034.3
20180221171318 25 37 0.0 0.0 0.00 0.53 0.00 92 1034.1
20180221170307 24 46 0.0 0.0 0.00 0.53 0.00 91 1033.7
20180221165317 24 13 0.0 0.0 0.00 0.59 0.00 91 1033.8
20180221164326 24 64 0.0 0.0 0.00 0.59 0.00 91 1033.9
20180221163320 24 17 0.0 0.0 0.00 0.59 0.00 91 1034.1
20180221162311 23 11 0.0 0.0 0.00 0.59 0.00 91 1034.1
20180221161320 23 49 0.0 0.0 0.00 0.59 0.00 91 1034.1
20180221160312 23 29 0.0 0.0 0.00 0.59 0.00 91 1034.3
20180221155322 23 355 0.0 0.0 0.00 0.69 0.00 91 1034.3
20180221154312 23 30 0.0 0.0 0.00 0.69 0.00 90 1034.4
20180221153322 23 11 0.0 0.0 0.00 0.69 0.00 90 1034.3
20180221152315 23 16 0.0 0.0 0.00 0.69 0.00 91 1034.3
20180221151325 23 355 0.0 0.0 0.00 0.69 0.00 90 1034.4
20180221150320 23 5 0.0 0.0 0.00 0.69 0.00 90 1034.2
20180221145315 23 47 0.0 0.0 0.00 0.70 0.00 90 1034.7
20180221144321 22 41 0.0 0.0 0.00 0.70 0.00 91 1034.1